• In Portugal
  • List of Countries
  • For 7 days
  • Water Temperature
  • Satellite Maps
  • Weather Map
  • Weather Widgets
  • user-avatar
    Login

    Hourly Weather Karibib

    Today, 16 December, Saturday

    Time Temperature Precipitation Wind Pressure Humidity
    00:00 +24°C° 0 mm 1 mps 664 mmHg 26%
    01:00 +21°C° 0 mm 0 mps 664 mmHg 27%
    02:00 +21°C° 0 mm 0 mps 664 mmHg 27%
    03:00 +21°C° 0 mm 0 mps 664 mmHg 27%
    04:00 +20°C° 0 mm 0 mps 663 mmHg 27%
    05:00 +24°C° 0 mm 1 mps 664 mmHg 23%
    06:00 +25°C° 0 mm 1 mps 665 mmHg 20%
    07:00 +27°C° 0 mm 2 mps 665 mmHg 16%
    08:00 +29°C° 0 mm 2 mps 665 mmHg 14%
    09:00 +32°C° 0 mm 2 mps 666 mmHg 12%
    10:00 +35°C° 0 mm 2 mps 666 mmHg 10%
    11:00 +36°C° 0 mm 3 mps 666 mmHg 11%
    12:00 +37°C° 0 mm 4 mps 666 mmHg 11%
    13:00 +39°C° 0 mm 5 mps 666 mmHg 12%
    14:00 +37°C° 0 mm 5 mps 665 mmHg 14%
    15:00 +36°C° 0 mm 5 mps 665 mmHg 16%
    16:00 +35°C° 0 mm 5 mps 664 mmHg 17%
    17:00 +34°C° 0 mm 5 mps 664 mmHg 19%
    18:00 +32°C° 0 mm 4 mps 664 mmHg 20%
    19:00 +30°C° 0 mm 4 mps 664 mmHg 21%
    20:00 +29°C° 0 mm 3 mps 665 mmHg 21%
    21:00 +28°C° 0 mm 3 mps 665 mmHg 22%
    22:00 +27°C° 0 mm 2 mps 665 mmHg 23%
    23:00 +27°C° 0 mm 1 mps 665 mmHg 24%

    Tomorrow, 17 December, Sunday

    Time Temperature Precipitation Wind Pressure Humidity
    00:00 +26°C° 0 mm 1 mps 665 mmHg 25%
    01:00 +24°C° 0 mm 0 mps 664 mmHg 26%
    02:00 +24°C° 0 mm 0 mps 664 mmHg 26%
    03:00 +23°C° 0 mm 0 mps 664 mmHg 26%
    04:00 +23°C° 0 mm 0 mps 664 mmHg 26%
    05:00 +26°C° 0.1 mm 1 mps 664 mmHg 25%
    06:00 +27°C° 0.1 mm 1 mps 664 mmHg 24%
    07:00 +28°C° 0.1 mm 1 mps 665 mmHg 24%
    08:00 +30°C° 0.2 mm 1 mps 665 mmHg 24%
    09:00 +31°C° 0.2 mm 2 mps 666 mmHg 24%
    10:00 +34°C° 0.2 mm 3 mps 666 mmHg 24%
    11:00 +34°C° 0.1 mm 3 mps 666 mmHg 24%
    12:00 +34°C° 0.1 mm 4 mps 665 mmHg 25%
    13:00 +34°C° 0.1 mm 4 mps 665 mmHg 26%
    14:00 +34°C° 0.9 mm 5 mps 664 mmHg 26%
    15:00 +33°C° 0.9 mm 5 mps 664 mmHg 27%
    16:00 +33°C° 0.9 mm 5 mps 664 mmHg 28%
    17:00 +30°C° 0.8 mm 4 mps 664 mmHg 29%
    18:00 +29°C° 0.8 mm 4 mps 664 mmHg 31%
    19:00 +27°C° 0.8 mm 3 mps 664 mmHg 33%
    20:00 +27°C° 0 mm 3 mps 664 mmHg 34%
    21:00 +26°C° 0 mm 3 mps 665 mmHg 35%
    22:00 +25°C° 0 mm 2 mps 665 mmHg 36%
    23:00 +25°C° 0 mm 2 mps 665 mmHg 37%

    Day after tomorrow, 18 December, Monday

    Time Temperature Precipitation Wind Pressure Humidity
    00:00 +24°C° 0 mm 2 mps 664 mmHg 38%
    01:00 +24°C° 0 mm 2 mps 664 mmHg 39%
    02:00 +23°C° 0 mm 1 mps 663 mmHg 40%
    03:00 +23°C° 0 mm 1 mps 663 mmHg 42%
    04:00 +22°C° 0 mm 1 mps 663 mmHg 43%
    05:00 +23°C° 0 mm 1 mps 663 mmHg 41%
    06:00 +24°C° 0 mm 1 mps 664 mmHg 38%
    07:00 +24°C° 0 mm 1 mps 664 mmHg 35%
    08:00 +26°C° 0 mm 1 mps 665 mmHg 30%
    09:00 +28°C° 0 mm 2 mps 665 mmHg 24%
    10:00 +30°C° 0 mm 2 mps 665 mmHg 18%
    11:00 +31°C° 0 mm 3 mps 665 mmHg 17%
    12:00 +33°C° 0 mm 3 mps 665 mmHg 16%
    13:00 +35°C° 0 mm 4 mps 664 mmHg 14%
    14:00 +34°C° 0 mm 5 mps 664 mmHg 15%
    15:00 +34°C° 0 mm 6 mps 663 mmHg 16%
    16:00 +33°C° 0 mm 7 mps 663 mmHg 17%
    17:00 +32°C° 0 mm 6 mps 663 mmHg 21%
    18:00 +29°C° 0 mm 6 mps 663 mmHg 25%
    19:00 +27°C° 0 mm 5 mps 663 mmHg 29%
    20:00 +26°C° 0 mm 4 mps 663 mmHg 31%
    21:00 +25°C° 0 mm 3 mps 663 mmHg 34%
    22:00 +24°C° 0 mm 2 mps 663 mmHg 37%
    23:00 +24°C° 0 mm 2 mps 663 mmHg 38%

    19 December, Tuesday

    Time Temperature Precipitation Wind Pressure Humidity
    00:00 +23°C° 0 mm 1 mps 663 mmHg 39%
    01:00 +23°C° 0 mm 1 mps 662 mmHg 40%
    02:00 +22°C° 0 mm 1 mps 662 mmHg 42%
    03:00 +22°C° 0 mm 1 mps 662 mmHg 43%
    04:00 +22°C° 0 mm 1 mps 662 mmHg 45%
    05:00 +22°C° 0 mm 1 mps 662 mmHg 42%
    06:00 +21°C° 0 mm 0 mps 663 mmHg 40%
    07:00 +22°C° 0 mm 0 mps 663 mmHg 37%
    08:00 +24°C° 0 mm 0 mps 663 mmHg 31%
    09:00 +26°C° 0 mm 0 mps 664 mmHg 25%
    10:00 +28°C° 0 mm 0 mps 664 mmHg 19%
    11:00 +32°C° 0 mm 1 mps 664 mmHg 18%
    12:00 +34°C° 0 mm 2 mps 663 mmHg 17%
    13:00 +35°C° 0 mm 3 mps 663 mmHg 15%
    14:00 +35°C° 0 mm 4 mps 663 mmHg 17%
    15:00 +34°C° 0 mm 6 mps 662 mmHg 18%
    16:00 +34°C° 0 mm 7 mps 662 mmHg 19%
    17:00 +32°C° 0 mm 6 mps 662 mmHg 21%
    18:00 +29°C° 0 mm 6 mps 662 mmHg 24%
    19:00 +27°C° 0 mm 5 mps 662 mmHg 27%
    20:00 +26°C° 0 mm 4 mps 662 mmHg 28%
    21:00 +26°C° 0 mm 3 mps 663 mmHg 28%
    22:00 +25°C° 0 mm 3 mps 663 mmHg 28%
    23:00 +25°C° 0 mm 2 mps 663 mmHg 27%

    20 December, Wednesday

    Time Temperature Precipitation Wind Pressure Humidity
    00:00 +25°C° 0 mm 2 mps 663 mmHg 26%
    01:00 +25°C° 0 mm 2 mps 662 mmHg 24%
    02:00 +24°C° 0 mm 2 mps 662 mmHg 24%
    03:00 +24°C° 0 mm 1 mps 662 mmHg 24%
    04:00 +24°C° 0 mm 1 mps 662 mmHg 24%
    05:00 +24°C° 0 mm 1 mps 662 mmHg 24%
    06:00 +24°C° 0 mm 1 mps 663 mmHg 23%
    07:00 +25°C° 0 mm 1 mps 663 mmHg 22%
    08:00 +27°C° 0 mm 1 mps 663 mmHg 19%
    09:00 +29°C° 0 mm 1 mps 664 mmHg 16%
    10:00 +30°C° 0 mm 1 mps 664 mmHg 14%
    11:00 +32°C° 0 mm 2 mps 664 mmHg 14%
    12:00 +34°C° 0 mm 2 mps 664 mmHg 15%
    13:00 +35°C° 0 mm 3 mps 664 mmHg 15%
    14:00 +34°C° 0 mm 4 mps 663 mmHg 16%
    15:00 +34°C° 0 mm 5 mps 663 mmHg 18%
    16:00 +34°C° 0 mm 6 mps 663 mmHg 19%
    17:00 +32°C° 0 mm 5 mps 663 mmHg 22%
    18:00 +28°C° 0 mm 5 mps 664 mmHg 25%
    19:00 +26°C° 0 mm 5 mps 664 mmHg 29%
    20:00 +26°C° 0 mm 4 mps 664 mmHg 28%
    21:00 +25°C° 0 mm 3 mps 664 mmHg 27%
    22:00 +25°C° 0 mm 2 mps 665 mmHg 26%
    23:00 +24°C° 0 mm 2 mps 664 mmHg 24%

    21 December, Thursday

    Time Temperature Precipitation Wind Pressure Humidity
    00:00 +24°C° 0 mm 2 mps 664 mmHg 23%
    01:00 +24°C° 0 mm 2 mps 663 mmHg 21%
    02:00 +24°C° 0 mm 2 mps 663 mmHg 21%
    03:00 +23°C° 0 mm 1 mps 663 mmHg 21%
    04:00 +23°C° 0 mm 1 mps 663 mmHg 21%
    05:00 +23°C° 0 mm 1 mps 663 mmHg 19%
    06:00 +24°C° 0 mm 1 mps 664 mmHg 18%
    07:00 +24°C° 0 mm 1 mps 664 mmHg 16%
    08:00 +26°C° 0 mm 1 mps 664 mmHg 15%
    09:00 +28°C° 0 mm 2 mps 665 mmHg 13%
    10:00 +30°C° 0 mm 2 mps 665 mmHg 11%
    11:00 +31°C° 0 mm 3 mps 665 mmHg 11%
    12:00 +33°C° 0 mm 4 mps 665 mmHg 11%
    13:00 +34°C° 0 mm 4 mps 664 mmHg 12%
    14:00 +34°C° 0 mm 5 mps 664 mmHg 13%
    15:00 +34°C° 0 mm 6 mps 664 mmHg 14%
    16:00 +33°C° 0 mm 7 mps 664 mmHg 16%
    17:00 +30°C° 0 mm 7 mps 664 mmHg 20%
    18:00 +28°C° 0 mm 6 mps 664 mmHg 24%
    19:00 +26°C° 0 mm 6 mps 664 mmHg 28%
    20:00 +25°C° 0 mm 5 mps 664 mmHg 29%
    21:00 +23°C° 0 mm 4 mps 664 mmHg 30%
    22:00 +22°C° 0 mm 3 mps 664 mmHg 31%
    23:00 +22°C° 0 mm 3 mps 664 mmHg 31%
    Show more